Stations météo

Publicité
Calvi, France (7754): Température de l'air & dewpoint: 16.02.2017 07:00:00 - 22.02.2017 07:00:00 (CET)Calvi, France (7754): Température de l'air 5cm: 16.02.2017 07:00:00 - 22.02.2017 07:00:00 (CET)Calvi, France (7754): Vitesse du vent & gusts: 16.02.2017 07:00:00 - 22.02.2017 07:00:00 (CET)Calvi, France (7754): Direction du vent: 16.02.2017 07:00:00 - 22.02.2017 07:00:00 (CET)Calvi, France (7754): reduced air pressure: 16.02.2017 07:00:00 - 22.02.2017 07:00:00 (CET)Calvi, France (7754): visibility: 16.02.2017 07:00:00 - 22.02.2017 07:00:00 (CET)Calvi, France (7754): Ensoleillement: 16.02.2017 07:00:00 - 22.02.2017 07:00:00 (CET)Calvi, France (7754): Quantités de précipitations: 16.02.2017 07:00:00 - 22.02.2017 07:00:00 (CET)
Date & Time tt [°C] td [°C] tt 5cm [°C] ff [km/h] ff [knt] fx [km/h] fx [knt] dd ppp [hPa] vv [km] sd [min] rr [mm]
22.02.2017 07:00:00 - - - - - - - - - - - -
22.02.2017 06:00:00 7,3 4,4 5,4 13 7 17 9 SSW 1019,5 30 0 0,0
22.02.2017 05:00:00 6,5 3,8 5,2 7 4 13 7 S 1019,8 33 0 0,0
22.02.2017 04:00:00 7,6 5,2 5,5 9 5 13 7 SSW 1019,7 28 0 0,0
22.02.2017 03:00:00 6,5 3,6 5,5 4 2 14 8 S 1020,0 30 0 0,0
22.02.2017 02:00:00 7,5 4,8 5,3 11 6 14 8 SSW 1020,4 35 0 0,0
22.02.2017 01:00:00 6,8 4,5 5,8 8 4 16 9 S 1020,5 31 0 0,0
22.02.2017 00:00:00 7,6 5,4 6,4 9 5 12 6 S 1020,5 10 0 0,0
21.02.2017 23:00:00 9,2 6,1 8,5 3 1 8 4 ESE 1020,3 31 0 0,0
21.02.2017 22:00:00 10,1 6,6 9,7 7 4 10 5 S 1020,5 35 0 0,0
21.02.2017 21:00:00 10,6 6,7 10,1 8 4 11 6 SSW 1020,6 40 0 0,0
21.02.2017 20:00:00 10,4 6,3 9,0 5 3 13 7 S 1020,7 19 0 0,0
21.02.2017 19:00:00 10,3 5,5 8,8 6 4 9 5 SSW 1020,1 43 0 0,0
21.02.2017 18:00:00 13,0 5,6 12,9 7 4 18 10 NE 1020,0 52 0 0,0
21.02.2017 17:00:00 14,0 8,0 14,5 10 6 18 10 N 1019,6 42 32 0,0
21.02.2017 16:00:00 15,0 8,0 18,4 14 8 22 12 N 1019,9 26 60 0,0
21.02.2017 15:00:00 15,3 7,3 20,4 6 4 19 10 N 1019,9 40 60 0,0
21.02.2017 14:00:00 15,1 7,1 17,0 11 6 22 12 N 1020,8 60 60 0,0
21.02.2017 13:00:00 14,9 6,7 16,7 13 7 21 12 N 1021,4 50 60 0,0
21.02.2017 12:00:00 14,3 6,1 18,7 13 7 18 10 N 1022,0 50 60 0,0
21.02.2017 11:00:00 13,8 6,2 18,2 12 6 16 9 N 1022,0 50 60 0,0
21.02.2017 10:00:00 13,9 4,7 10,6 0 0 7 4 N 1022,1 58 60 0,0
21.02.2017 09:00:00 10,1 3,4 4,1 6 3 15 8 S 1022,5 50 55 0,0
21.02.2017 08:00:00 4,5 1,0 3,6 5 3 16 8 SSW 1022,5 50 0 0,0
21.02.2017 07:00:00 4,9 1,0 3,3 9 5 16 9 S 1022,1 40 0 0,0
21.02.2017 06:00:00 4,7 1,7 3,8 9 5 13 7 S 1022,1 60 0 0,0
21.02.2017 05:00:00 6,5 2,6 3,7 9 5 17 9 SSW 1022,5 49 0 0,0
21.02.2017 04:00:00 4,2 1,7 3,4 8 4 15 8 S 1022,9 40 0 0,0
21.02.2017 03:00:00 4,7 2,1 3,7 6 4 15 8 S 1022,9 42 0 0,0
21.02.2017 02:00:00 5,8 2,8 3,8 11 6 13 7 SSW 1023,2 48 0 0,0
21.02.2017 01:00:00 6,1 3,1 4,5 7 4 13 7 SSW 1023,4 36 0 0,0
21.02.2017 00:00:00 6,5 3,3 5,2 8 4 17 9 SW 1023,3 43 0 0,0
20.02.2017 23:00:00 6,4 3,2 5,4 8 5 16 9 SSW 1023,3 40 0 0,0
20.02.2017 22:00:00 6,7 3,8 5,1 11 6 14 8 SSW 1023,2 40 0 0,0
20.02.2017 21:00:00 6,8 3,8 6,1 9 5 14 8 SSW 1022,9 38 0 0,0
20.02.2017 20:00:00 7,4 4,4 6,2 10 5 14 8 SSW 1022,6 32 0 0,0
20.02.2017 19:00:00 8,1 4,7 7,2 6 4 12 6 S 1022,4 40 0 0,0
20.02.2017 18:00:00 12,1 5,7 10,3 4 2 22 12 N 1021,9 54 22 0,0
20.02.2017 17:00:00 13,9 5,8 14,6 15 8 24 13 N 1021,6 40 34 0,0
20.02.2017 16:00:00 14,3 4,6 15,3 16 9 27 15 N 1021,3 56 20 0,0
20.02.2017 15:00:00 15,1 4,5 17,3 18 10 28 15 N 1021,3 50 60 0,0
20.02.2017 14:00:00 15,5 4,2 17,4 21 11 27 15 N 1021,3 50 60 0,0
20.02.2017 13:00:00 15,9 5,2 15,9 19 11 27 15 N 1022,1 50 56 0,0
20.02.2017 12:00:00 16,7 4,7 20,3 15 8 26 14 N 1021,9 50 60 0,0
20.02.2017 11:00:00 15,8 3,9 18,1 8 4 23 12 N 1022,0 52 60 0,0
20.02.2017 10:00:00 15,4 2,2 11,5 2 1 9 5 NNE 1021,9 50 60 0,0
20.02.2017 09:00:00 11,4 2,7 5,5 6 3 18 10 SE 1021,7 50 51 0,0
20.02.2017 08:00:00 5,8 0,7 5,0 14 8 21 12 S 1021,8 45 0 0,0
20.02.2017 07:00:00 6,4 0,3 5,6 15 8 21 11 S 1021,5 40 0 0,0
20.02.2017 06:00:00 10,3 1,1 8,8 13 7 23 12 SSW 1021,7 60 0 0,0
20.02.2017 05:00:00 10,1 1,7 8,8 13 7 22 12 SSW 1022,0 60 0 0,0
20.02.2017 04:00:00 10,6 1,9 8,8 16 8 23 12 SSW 1022,2 60 0 0,0
20.02.2017 03:00:00 9,8 2,4 8,7 13 7 21 12 SSW 1022,9 60 0 0,0
20.02.2017 02:00:00 10,1 2,9 9,1 15 8 27 15 SSW 1023,5 60 0 0,0
20.02.2017 01:00:00 10,7 3,2 8,3 16 9 29 16 SSW 1023,3 60 0 0,0
20.02.2017 00:00:00 9,4 3,1 7,5 16 8 21 12 S 1023,5 60 0 0,0
19.02.2017 23:00:00 9,7 2,1 7,8 10 5 25 14 SE 1024,0 60 0 0,0
19.02.2017 22:00:00 8,5 1,9 6,5 15 8 19 10 SSE 1024,2 60 0 0,0
19.02.2017 21:00:00 7,2 1,9 5,2 15 8 19 10 S 1024,1 60 0 0,0
19.02.2017 20:00:00 7,4 2,7 5,6 5 3 17 9 S 1024,2 60 0 0,0
19.02.2017 19:00:00 8,4 3,6 7,0 9 5 13 7 S 1023,7 60 0 0,0
19.02.2017 18:00:00 11,4 3,2 10,4 2 1 5 3 SSE 1023,4 60 22 0,0
19.02.2017 17:00:00 14,1 1,4 18,2 4 2 13 7 NNW 1023,4 60 60 0,0
19.02.2017 16:00:00 14,4 2,0 15,2 8 4 21 12 N 1023,7 60 57 0,0
19.02.2017 15:00:00 13,8 2,7 13,7 13 7 23 12 N 1023,9 30 38 0,0
19.02.2017 14:00:00 14,7 4,1 16,1 14 8 24 13 N 1023,9 30 60 0,0
19.02.2017 13:00:00 14,5 8,4 16,1 16 9 24 13 N 1024,5 30 60 0,0
19.02.2017 12:00:00 14,7 8,9 18,6 15 8 22 12 N 1025,2 30 60 0,0
19.02.2017 11:00:00 14,4 7,2 19,4 7 4 13 7 N 1025,5 30 60 0,0
19.02.2017 10:00:00 13,8 4,4 10,1 0 0 11 6 N 1025,2 56 60 0,0
19.02.2017 09:00:00 10,1 4,0 5,5 5 3 17 9 S 1025,0 50 50 0,0
19.02.2017 08:00:00 6,0 1,9 3,2 12 7 16 9 SSW 1024,8 46 0 0,2
19.02.2017 07:00:00 5,3 1,8 3,1 9 5 15 8 S 1024,2 20 0 0,0
19.02.2017 06:00:00 4,6 1,1 3,5 8 4 15 8 SSW 1024,2 32 0 0,0
19.02.2017 05:00:00 5,7 3,0 3,2 10 5 15 8 SSW 1023,9 32 0 0,0
19.02.2017 04:00:00 4,5 2,0 3,7 10 5 15 8 SSW 1023,8 33 0 0,0
19.02.2017 03:00:00 6,0 3,8 4,0 10 5 14 8 SSW 1023,9 31 0 0,0
19.02.2017 02:00:00 7,2 4,2 4,7 10 5 14 7 SSW 1023,9 23 0 0,0
19.02.2017 01:00:00 5,6 3,6 4,5 8 4 13 7 S 1023,9 20 0 0,0
19.02.2017 00:00:00 6,2 3,9 5,1 6 3 14 8 S 1023,8 20 0 0,0
18.02.2017 23:00:00 5,6 2,9 4,7 5 3 13 7 S 1023,5 19 0 0,0
18.02.2017 22:00:00 7,0 4,5 5,1 8 4 11 6 SSW 1023,1 20 0 0,0
18.02.2017 21:00:00 7,0 4,0 5,9 7 4 12 6 S 1022,8 22 0 0,0
18.02.2017 20:00:00 8,8 5,2 7,4 9 5 11 6 S 1022,2 22 0 0,0
18.02.2017 19:00:00 10,5 6,1 8,2 4 2 15 8 S 1021,7 26 0 0,0
18.02.2017 18:00:00 12,5 6,5 11,3 7 4 20 11 S 1020,9 36 20 0,0
18.02.2017 17:00:00 15,7 4,7 18,2 8 5 24 13 WNW 1020,2 20 60 0,0
18.02.2017 16:00:00 16,8 3,8 20,5 11 6 26 14 NNW 1020,2 20 60 0,0
18.02.2017 15:00:00 16,6 5,8 16,1 16 9 27 15 N 1020,2 20 41 0,0
18.02.2017 14:00:00 17,5 6,1 18,2 13 7 22 12 N 1020,6 60 60 0,0
18.02.2017 13:00:00 16,6 7,8 17,4 10 6 23 13 NW 1021,2 20 60 0,0
18.02.2017 12:00:00 16,3 7,2 19,8 13 7 22 12 NNW 1021,7 20 60 0,0
18.02.2017 11:00:00 16,1 5,7 15,2 0 0 15 8 N 1021,9 56 52 0,0
18.02.2017 10:00:00 13,4 6,0 12,2 10 5 16 9 N 1022,2 32 40 0,0
18.02.2017 09:00:00 11,7 5,8 6,7 3 2 13 7 S 1022,0 41 39 0,0
18.02.2017 08:00:00 6,7 3,7 5,3 10 6 12 7 SSW 1021,7 31 0 0,0
18.02.2017 07:00:00 6,7 2,9 5,6 5 3 15 8 S 1021,4 30 0 0,0
18.02.2017 06:00:00 8,4 4,0 6,1 9 5 14 8 SSW 1020,8 29 0 0,0
18.02.2017 05:00:00 10,7 4,6 8,3 0 0 19 11 N 1020,3 34 0 0,0
18.02.2017 04:00:00 12,4 5,5 10,3 11 6 27 15 SE 1020,2 42 0 0,0
18.02.2017 03:00:00 13,0 5,4 11,7 16 9 34 19 SSW 1020,2 41 0 0,0
18.02.2017 02:00:00 13,1 6,0 11,6 14 7 29 15 SSW 1021,2 40 0 0,0
18.02.2017 01:00:00 12,6 6,4 11,7 14 8 28 15 S 1021,7 37 0 0,0
18.02.2017 00:00:00 12,7 5,8 11,8 14 8 29 16 SSW 1022,1 42 0 0,0
17.02.2017 23:00:00 13,6 5,7 12,8 16 9 31 17 SSW 1022,5 47 0 0,0
17.02.2017 22:00:00 13,3 5,7 12,3 14 8 33 18 SSW 1022,9 43 0 0,0
17.02.2017 21:00:00 12,9 5,3 12,0 16 9 40 21 SSW 1022,4 42 0 0,0
17.02.2017 20:00:00 13,1 5,5 12,4 20 11 40 22 SSW 1022,5 43 0 0,0
17.02.2017 19:00:00 13,2 5,4 12,5 20 11 40 22 SSW 1022,4 42 0 0,0
17.02.2017 18:00:00 13,4 5,0 12,7 20 11 44 24 SSW 1022,3 47 13 0,0
17.02.2017 17:00:00 13,8 5,7 13,8 17 9 40 21 SSW 1023,0 30 22 0,0
17.02.2017 16:00:00 15,1 6,1 16,1 22 12 48 26 SSW 1023,5 40 58 0,0
17.02.2017 15:00:00 16,1 5,7 17,5 28 15 46 25 SSW 1024,1 40 57 0,0
17.02.2017 14:00:00 16,2 5,2 16,7 24 13 45 24 SSW 1024,9 40 48 0,0
17.02.2017 13:00:00 16,9 4,9 17,6 21 11 41 22 SW 1025,4 40 60 0,0
17.02.2017 12:00:00 16,4 5,0 18,7 23 13 44 24 SSW 1026,4 40 60 0,0
17.02.2017 11:00:00 16,0 5,3 17,9 23 12 37 20 SSW 1026,9 40 60 0,0
17.02.2017 10:00:00 15,1 5,0 13,4 19 10 31 17 SW 1027,7 40 60 0,0
17.02.2017 09:00:00 13,5 4,9 10,4 16 9 23 12 S 1027,7 30 45 0,0
17.02.2017 08:00:00 11,1 4,3 7,1 12 7 18 10 S 1027,8 25 0 0,0
17.02.2017 07:00:00 10,4 4,3 7,6 10 5 16 8 SSW 1028,0 25 0 0,0
17.02.2017 06:00:00 10,9 4,4 9,5 12 7 18 10 SSW 1028,2 31 0 0,0
17.02.2017 05:00:00 10,7 4,6 9,5 11 6 24 13 SSW 1028,5 30 0 0,0
17.02.2017 04:00:00 10,5 4,6 8,0 11 6 16 8 S 1029,0 27 0 0,0
17.02.2017 03:00:00 10,4 4,1 9,1 9 5 17 9 SSW 1029,6 33 0 0,0
17.02.2017 02:00:00 10,6 4,3 7,0 12 7 18 10 SSW 1030,0 38 0 0,0
17.02.2017 01:00:00 7,9 3,7 7,1 11 6 18 10 S 1030,5 34 0 0,0
17.02.2017 00:00:00 7,9 3,7 7,2 16 9 20 11 SSE 1030,7 10 0 0,0
16.02.2017 23:00:00 8,2 3,8 7,4 16 9 19 10 SSE 1030,9 38 0 0,0
16.02.2017 22:00:00 8,0 4,2 7,2 12 7 19 10 S 1031,1 34 0 0,0
16.02.2017 21:00:00 8,4 4,6 7,7 16 9 20 11 SSE 1031,1 29 0 0,0
16.02.2017 20:00:00 9,4 5,2 8,8 14 8 18 10 S 1031,0 23 0 0,0
16.02.2017 19:00:00 12,3 7,0 11,1 11 6 20 11 S 1030,9 30 0 0,0
16.02.2017 18:00:00 13,2 7,8 12,4 13 7 27 15 S 1030,7 17 15 0,0
16.02.2017 17:00:00 14,6 7,2 16,2 21 12 29 16 S 1030,5 35 60 0,0
16.02.2017 16:00:00 16,7 6,8 20,1 14 7 31 17 S 1030,5 35 60 0,0
16.02.2017 15:00:00 17,3 5,9 21,3 19 11 31 17 SSW 1030,9 35 60 0,0
16.02.2017 14:00:00 17,8 5,0 19,1 12 7 22 12 WSW 1031,4 35 60 0,0
16.02.2017 13:00:00 18,1 7,2 19,0 8 5 21 11 SW 1031,9 35 60 0,0
16.02.2017 12:00:00 17,0 7,3 22,1 4 2 11 6 NE 1032,7 35 60 0,0
16.02.2017 11:00:00 15,5 4,8 17,1 5 3 11 6 NE 1032,8 35 60 0,0
16.02.2017 10:00:00 14,6 4,8 10,6 0 0 6 4 N 1032,8 35 60 0,0
16.02.2017 09:00:00 9,8 5,2 5,3 4 2 12 6 SSW 1033,2 35 44 0,0
16.02.2017 08:00:00 5,8 2,8 4,0 5 3 12 7 SSW 1033,2 35 0 0,0
16.02.2017 07:00:00 4,9 2,3 4,1 6 3 13 7 S 1033,1 25 0 0,0

tt = Température de l'air
td = dewpoint
tt 5cm = Température de l'air 5cm
ff = Vitesse du vent
fx = gusts
dd = Direction du vent
ppp = reduced air pressure
vv = visibility
sd = Ensoleillement
rr = Quantités de précipitations

stations d'obs. à proximité